TimeEEST,TemperatureF,Dew PointF,Humidity,Sea Level PressureIn,VisibilityMPH,Wind Direction,Wind SpeedMPH,Gust SpeedMPH,PrecipitationIn,Events,Conditions,WindDirDegrees,DateUTC
12:20 AM,69.8,69.8,100,29.92,-9999.0,NNW,8.1,-,N/A,,Clear,340,2012-10-03 21:20:00
12:50 AM,69.8,69.8,100,29.92,-9999.0,North,11.5,-,N/A,,Clear,350,2012-10-03 21:50:00
1:20 AM,69.8,68.0,94,29.92,-9999.0,North,9.2,-,N/A,,Clear,350,2012-10-03 22:20:00
1:50 AM,69.8,68.0,94,29.92,-9999.0,North,9.2,-,N/A,,Clear,360,2012-10-03 22:50:00
2:20 AM,69.8,68.0,94,29.92,-9999.0,North,10.4,-,N/A,,Clear,360,2012-10-03 23:20:00
2:50 AM,69.8,68.0,94,29.92,-9999.0,North,9.2,-,N/A,,Clear,350,2012-10-03 23:50:00
3:00 AM,69,67,92,29.94,6,North,9.2,,,,Partly Cloudy,350,2012-10-04 00:00:00
3:20 AM,68.0,68.0,100,29.92,-9999.0,North,9.2,-,N/A,,Clear,350,2012-10-04 00:20:00
3:50 AM,68.0,68.0,100,29.92,-9999.0,North,9.2,-,N/A,,Clear,350,2012-10-04 00:50:00
4:20 AM,69.8,66.2,88,29.92,-9999.0,North,8.1,-,N/A,,Clear,360,2012-10-04 01:20:00
4:50 AM,69.8,62.6,78,29.95,-9999.0,North,6.9,-,N/A,,Clear,10,2012-10-04 01:50:00
5:20 AM,69.8,66.2,88,29.95,6.2,NNE,6.9,-,N/A,,Mostly Cloudy,30,2012-10-04 02:20:00
5:50 AM,69.8,64.4,83,29.95,6.2,NNE,6.9,-,N/A,,Mostly Cloudy,20,2012-10-04 02:50:00
6:20 AM,69.8,64.4,83,29.95,6.2,NNE,6.9,-,N/A,,Mostly Cloudy,20,2012-10-04 03:20:00
6:50 AM,69.8,64.4,83,29.95,6.2,NE,4.6,-,N/A,,Mostly Cloudy,40,2012-10-04 03:50:00
7:20 AM,69.8,64.4,83,29.95,6.2,NE,3.5,-,N/A,,Scattered Clouds,50,2012-10-04 04:20:00
7:50 AM,69.8,66.2,88,29.95,6.2,NNE,3.5,-,N/A,,Scattered Clouds,30,2012-10-04 04:50:00
8:20 AM,69.8,66.2,88,29.95,6.2,ESE,4.6,-,N/A,,Partly Cloudy,110,2012-10-04 05:20:00
8:50 AM,71.6,62.6,73,29.95,6.2,Variable,3.5,-,N/A,,Scattered Clouds,0,2012-10-04 05:50:00
9:00 AM,72,63,67,29.96,6,East,3.5,,,,Partly Cloudy,80,2012-10-04 06:00:00
9:20 AM,73.4,62.6,69,29.95,6.2,Variable,5.8,-,N/A,,Scattered Clouds,0,2012-10-04 06:20:00
9:50 AM,75.2,60.8,61,29.98,6.2,NNE,8.1,-,N/A,,Scattered Clouds,30,2012-10-04 06:50:00
10:20 AM,75.2,59.0,57,29.98,6.2,North,8.1,-,N/A,,Scattered Clouds,10,2012-10-04 07:20:00
10:50 AM,75.2,60.8,61,29.98,6.2,NNE,6.9,-,N/A,,Scattered Clouds,30,2012-10-04 07:50:00
11:20 AM,75.2,57.2,53,29.98,6.2,NNE,9.2,-,N/A,,Scattered Clouds,20,2012-10-04 08:20:00
11:50 AM,75.2,57.2,53,29.98,6.2,NNE,8.1,-,N/A,,Scattered Clouds,20,2012-10-04 08:50:00
12:20 PM,77.0,57.2,50,29.98,6.2,North,8.1,-,N/A,,Scattered Clouds,360,2012-10-04 09:20:00
12:50 PM,77.0,57.2,50,29.95,6.2,NNE,6.9,-,N/A,,Scattered Clouds,30,2012-10-04 09:50:00
1:20 PM,80.6,57.2,45,29.95,6.2,Variable,4.6,-,N/A,,Scattered Clouds,0,2012-10-04 10:20:00
1:50 PM,77.0,59.0,54,29.95,6.2,North,13.8,-,N/A,,Scattered Clouds,350,2012-10-04 10:50:00
2:20 PM,77.0,60.8,57,29.92,6.2,North,11.5,-,N/A,,Scattered Clouds,10,2012-10-04 11:20:00
2:50 PM,77.0,59.0,54,29.92,6.2,North,11.5,-,N/A,,Scattered Clouds,10,2012-10-04 11:50:00
3:00 PM,77,59,43,29.93,6,North,11.5,,,,Partly Cloudy,10,2012-10-04 12:00:00
3:20 PM,77.0,59.0,54,29.92,6.2,North,13.8,-,N/A,,Scattered Clouds,350,2012-10-04 12:20:00
3:50 PM,77.0,57.2,50,29.92,6.2,North,11.5,-,N/A,,Scattered Clouds,10,2012-10-04 12:50:00
4:20 PM,77.0,57.2,50,29.92,6.2,North,12.7,-,N/A,,Scattered Clouds,360,2012-10-04 13:20:00
4:50 PM,75.2,59.0,57,29.92,6.2,North,12.7,-,N/A,,Partly Cloudy,10,2012-10-04 13:50:00
5:20 PM,75.2,57.2,53,29.92,6.2,North,9.2,-,N/A,,Partly Cloudy,10,2012-10-04 14:20:00
5:50 PM,73.4,57.2,57,29.92,6.2,NNE,9.2,-,N/A,,Partly Cloudy,20,2012-10-04 14:50:00
6:20 PM,73.4,57.2,57,29.95,6.2,NNE,9.2,-,N/A,,Scattered Clouds,30,2012-10-04 15:20:00
6:50 PM,71.6,59.0,64,29.95,6.2,North,9.2,-,N/A,,Scattered Clouds,10,2012-10-04 15:50:00
7:20 PM,71.6,59.0,64,29.95,6.2,NNE,8.1,-,N/A,,Scattered Clouds,30,2012-10-04 16:20:00
7:50 PM,71.6,59.0,64,29.95,6.2,NNE,9.2,-,N/A,,Scattered Clouds,20,2012-10-04 16:50:00
8:20 PM,71.6,59.0,64,29.95,6.2,Variable,8.1,-,N/A,,Partly Cloudy,0,2012-10-04 17:20:00
8:50 PM,71.6,59.0,64,29.95,6.2,NE,6.9,-,N/A,,Partly Cloudy,50,2012-10-04 17:50:00
9:00 PM,71,58,56,29.96,6,NE,6.9,,,,Scattered Clouds,50,2012-10-04 18:00:00
9:20 PM,71.6,59.0,64,29.95,6.2,NE,6.9,-,N/A,,Partly Cloudy,50,2012-10-04 18:20:00
9:50 PM,69.8,59.0,68,29.95,6.2,NE,3.5,-,N/A,,Scattered Clouds,50,2012-10-04 18:50:00
10:20 PM,69.8,59.0,68,29.95,6.2,Variable,3.5,-,N/A,,Partly Cloudy,0,2012-10-04 19:20:00
10:50 PM,68.0,59.0,73,29.95,6.2,WNW,3.5,-,N/A,,Partly Cloudy,290,2012-10-04 19:50:00
11:20 PM,68.0,59.0,73,29.95,6.2,North,6.9,-,N/A,,Partly Cloudy,350,2012-10-04 20:20:00
11:50 PM,68.0,59.0,73,29.95,6.2,North,4.6,-,N/A,,Partly Cloudy,10,2012-10-04 20:50:00